1516442401.09,7814,6.31,72138.5,-12.45,-15.39,-15.21,0,*51
1516442402.36,7815,6.38,72136.8,-12.45,-15.39,-15.25,0,*54
1516442403.63,7816,6.38,72142.0,-12.45,-15.35,-15.29,0,*57
1516442404.87,7817,6.31,72138.0,-12.45,-15.49,-15.49,0,*5B
1516442406.14,7818,6.31,72134.0,-12.45,-15.39,-15.25,0,*59
1516442407.41,7819,6.31,72138.3,-12.45,-15.39,-15.25,0,*58
1516442408.67,7820,6.31,72130.8,-12.45,-15.21,-15.15,0,*58
1516442409.94,7821,6.31,72126.8,-12.45,-15.35,-15.29,0,*53
1516442411.2,7822,6.38,72126.5,-12.45,-15.49,-15.35,0,*56
1516442412.47,7823,6.31,72128.5,-12.45,-15.43,-15.29,0,*50
1516442413.76,7824,6.31,72128.0,-12.45,-15.57,-15.57,0,*5B
1516442415.0,7825,6.31,72130.5,-12.45,-15.53,-15.53,0,*5A
1516442416.25,7826,6.31,72130.8,-12.45,-15.53,-15.49,0,*52
1516442417.52,7827,6.31,72132.3,-12.45,-15.35,-15.29,0,*55
1516442418.77,7828,6.31,72132.8,-12.45,-15.21,-15.15,0,*50
1516442420.03,7829,6.31,72142.3,-12.45,-15.21,-15.15,0,*51
1516442421.29,7830,6.31,72138.8,-12.45,-15.15,-15.21,0,*59
1516442422.53,7831,6.31,72136.3,-12.43,-15.57,-15.49,0,*56
1516442423.77,7832,6.31,72136.8,-12.43,-15.57,-15.49,0,*55
1516442425.01,7833,6.31,72128.3,-12.43,-15.35,-15.29,0,*56
1516442426.27,7834,6.31,72132.0,-12.43,-15.21,-15.21,0,*5C
1516442427.48,7835,6.31,72128.5,-12.43,-15.15,-15.15,0,*5D
1516442428.74,7836,6.31,72128.5,-12.41,-15.35,-15.29,0,*51
1516442429.98,7837,6.31,72134.3,-12.43,-15.29,-15.21,0,*57
1516442431.26,7838,6.31,72132.0,-12.41,-15.43,-15.21,0,*56
1516442432.52,7839,6.31,72126.0,-12.43,-15.35,-15.35,0,*51
1516442433.75,7840,6.38,72128.8,-12.41,-15.71,-15.63,0,*5E
1516442435.01,7841,6.31,72130.5,-12.41,-15.57,-15.49,0,*53
1516442436.24,7842,6.31,72122.0,-12.43,-15.71,-15.57,0,*59
1516442437.52,7843,6.31,72124.8,-12.41,-15.57,-15.57,0,*5E
1516442438.73,7844,6.31,72118.5,-12.39,-15.71,-15.71,0,*56
1516442439.99,7845,6.31,72120.8,-12.41,-15.49,-15.43,0,*52
1516442441.23,7846,6.31,72122.0,-12.41,-15.29,-15.15,0,*54
1516442442.47,7847,6.31,72122.3,-12.41,-15.99,-15.89,0,*5B
1516442443.75,7848,6.31,72112.8,-12.41,-16.23,-16.23,0,*55
1516442444.96,7849,6.31,72112.5,-12.43,-16.37,-16.37,0,*56
1516442446.19,7850,6.31,72114.8,-12.41,-16.37,-16.37,0,*5C
1516442447.43,7851,6.31,72114.0,-12.41,-16.59,-16.59,0,*5D
1516442448.66,7852,6.31,72118.0,-12.43,-16.75,-16.65,0,*5D
1516442449.91,7853,6.31,72112.3,-12.43,-16.65,-16.75,0,*5C
1516442451.16,7854,6.31,72122.5,-12.43,-16.31,-16.23,0,*59
1516442452.39,7855,6.31,72118.5,-12.45,-16.37,-16.45,0,*58
1516442453.63,7856,6.31,72126.5,-12.45,-16.59,-16.45,0,*53
1516442454.87,7857,6.31,72124.3,-12.45,-16.37,-16.41,0,*5E
1516442456.1,7858,6.31,72120.0,-12.45,-16.37,-16.37,0,*50
1516442457.34,7859,6.31,72122.5,-12.49,-16.41,-16.41,0,*5D
1516442458.61,7860,6.31,72122.3,-12.49,-16.41,-16.31,0,*50
1516442459.87,7861,6.31,72124.0,-12.49,-16.31,-16.41,0,*51
1516442461.13,7862,6.31,72120.5,-12.49,-16.41,-16.31,0,*52
1516442462.39,7863,6.31,72122.5,-12.51,-16.31,-16.31,0,*5D
1516442463.67,7864,6.31,72124.0,-12.49,-16.31,-16.31,0,*53
1516442464.93,7865,6.31,72118.3,-12.51,-16.27,-16.27,0,*5B
1516442466.22,7866,6.31,72120.8,-12.49,-16.13,-16.13,0,*51
1516442467.43,7867,6.31,72118.0,-12.51,-15.99,-15.99,0,*59
1516442468.72,7868,6.31,72118.3,-12.49,-15.85,-15.81,0,*5B
1516442469.93,7869,6.31,72116.0,-12.51,-15.95,-15.95,0,*57
1516442471.16,7870,6.31,72120.0,-12.49,-15.99,-15.99,0,*56
1516442472.44,7871,6.31,72122.3,-12.51,-16.13,-16.09,0,*55
1516442473.73,7872,6.31,72120.8,-12.49,-15.85,-15.85,0,*54
1516442474.96,7873,6.31,72120.0,-12.49,-15.99,-15.95,0,*59
1516442476.16,7874,6.31,72122.8,-12.51,-15.99,-15.99,0,*5B
1516442477.44,7875,6.31,72122.0,-12.51,-16.13,-16.09,0,*51
1516442478.64,7876,6.31,72120.5,-12.51,-15.99,-15.95,0,*55
1516442479.88,7877,6.31,72124.3,-12.51,-15.71,-15.57,0,*5C
1516442481.12,7878,6.31,72122.8,-12.49,-15.95,-15.95,0,*5E
1516442482.41,7879,6.31,72128.5,-12.49,-16.23,-16.27,0,*5B
1516442483.68,7880,6.31,72126.8,-12.51,-16.13,-16.09,0,*5B
1516442484.9,7881,6.31,72124.3,-12.51,-15.67,-15.53,0,*56
1516442486.14,7882,6.31,72124.5,-12.51,-15.71,-15.57,0,*56
1516442487.41,7883,6.31,72126.8,-12.49,-15.39,-15.29,0,*5B
1516442488.69,7884,6.31,72130.0,-12.45,-15.39,-15.35,0,*5D
1516442489.98,7885,6.31,72128.0,-12.45,-15.35,-15.21,0,*55
1516442491.22,7886,6.31,72130.8,-12.45,-15.15,-15.07,0,*50
1516442492.48,7887,6.31,72130.3,-12.45,-15.11,-14.97,0,*5D
1516442493.76,7888,6.31,72130.3,-12.45,-15.01,-14.97,0,*53
1516442495.04,7889,6.31,72134.0,-12.45,-15.01,-15.01,0,*5C
1516442496.29,7890,6.31,72134.3,-12.43,-15.01,-14.97,0,*5C
1516442497.52,7891,6.31,72130.8,-12.43,-15.63,-15.57,0,*54
1516442498.75,7892,6.31,72120.5,-12.43,-15.99,-15.89,0,*51
1516442500.01,7893,6.31,72124.5,-12.41,-15.57,-15.49,0,*5C
1516442501.29,7894,6.31,72124.8,-12.41,-15.21,-15.21,0,*54
1516442502.55,7895,6.31,72128.0,-12.43,-15.35,-15.35,0,*57
1516442503.83,7896,6.31,72126.5,-12.41,-15.85,-15.85,0,*56
1516442505.04,7897,6.31,72126.8,-12.39,-15.99,-15.95,0,*54
1516442506.26,7898,6.31,72124.8,-12.43,-15.99,-15.89,0,*5B
1516442507.55,7899,6.31,72122.8,-12.41,-16.13,-15.89,0,*59
1516442508.81,7900,6.31,72120.5,-12.43,-16.17,-16.31,0,*5E
1516442510.04,7901,6.31,72124.8,-12.41,-16.03,-16.03,0,*59
1516442511.3,7902,6.31,72118.0,-12.43,-15.89,-15.89,0,*58
1516442512.51,7903,6.31,72120.8,-12.43,-15.75,-15.75,0,*59
1516442513.75,7904,6.31,72122.3,-12.41,-15.49,-15.49,0,*5C
1516442515.01,7905,6.31,72124.5,-12.41,-16.13,-15.99,0,*5C
1516442516.3,7906,6.31,72118.3,-12.41,-16.17,-16.17,0,*5E
1516442517.56,7907,6.31,72112.0,-12.43,-16.13,-16.23,0,*5E
1516442518.82,7908,6.31,72104.5,-12.43,-16.23,-16.23,0,*52
1516442520.1,7909,6.31,72100.5,-12.41,-16.17,-16.23,0,*56
1516442521.36,7910,6.31,72108.0,-12.43,-16.23,-16.31,0,*58
1516442522.63,7911,6.31,72118.8,-12.41,-16.31,-16.31,0,*58
1516442523.89,7912,6.31,72114.8,-12.43,-16.23,-16.31,0,*5A
1516442525.15,7913,6.31,72110.3,-12.43,-16.17,-16.31,0,*5C
1516442526.4,7914,6.31,72110.3,-12.43,-16.23,-16.23,0,*5F
1516442527.64,7915,6.31,72110.8,-12.43,-16.17,-16.03,0,*5B
1516442528.91,7916,6.31,72112.3,-12.43,-16.17,-16.17,0,*5D
1516442530.19,7917,6.31,72112.5,-12.45,-16.17,-16.31,0,*5E
1516442531.43,7918,6.31,72116.0,-12.45,-16.37,-16.37,0,*55
1516442532.72,7919,6.31,72114.3,-12.45,-16.31,-16.17,0,*50
1516442534.0,7920,6.31,72116.5,-12.45,-16.23,-16.23,0,*5E
1516442535.29,7921,6.31,72114.0,-12.45,-16.17,-16.23,0,*58
1516442536.55,7922,6.31,72118.3,-12.45,-16.17,-16.03,0,*59
1516442537.84,7923,6.31,72120.0,-12.45,-16.23,-16.23,0,*5D
1516442539.07,7924,6.31,72116.8,-12.43,-16.31,-16.03,0,*5D
1516442540.32,7925,6.31,72120.3,-12.43,-16.23,-16.23,0,*5D
1516442541.6,7926,6.31,72118.0,-12.45,-16.31,-16.31,0,*58
1516442542.87,7927,6.31,72118.0,-12.45,-16.37,-16.31,0,*5F
1516442544.13,7928,6.31,72120.8,-12.45,-16.37,-16.27,0,*57
1516442545.39,7929,6.31,72116.8,-12.45,-16.03,-15.89,0,*56
1516442546.66,7930,6.31,72116.5,-12.45,-16.09,-16.03,0,*55
1516442547.95,7931,6.31,72116.0,-12.45,-16.27,-16.09,0,*52
1516442549.21,7932,6.31,72124.0,-12.43,-16.23,-16.17,0,*5C
1516442550.45,7933,6.31,72122.3,-12.43,-16.17,-15.99,0,*5F
1516442551.68,7934,6.31,72120.3,-12.43,-16.13,-15.99,0,*5C
1516442552.92,7935,6.31,72122.0,-12.43,-16.23,-16.03,0,*5E
1516442554.15,7936,6.31,72124.5,-12.43,-16.17,-15.99,0,*5A
1516442555.36,7937,6.31,72118.3,-12.43,-16.03,-15.99,0,*5E
1516442556.62,7938,6.31,72120.0,-12.41,-16.17,-15.99,0,*56
1516442557.85,7939,6.31,72118.5,-12.43,-16.17,-16.03,0,*55
1516442559.12,7940,6.31,72124.3,-12.43,-16.17,-15.89,0,*5A
1516442560.4,7941,6.31,72130.0,-12.41,-16.13,-15.89,0,*5D
1516442561.69,7942,6.31,72130.3,-12.41,-16.13,-15.89,0,*5E
1516442562.97,7943,6.31,72128.5,-12.41,-16.13,-15.85,0,*53
1516442564.24,7944,6.31,72122.0,-12.43,-16.13,-15.89,0,*5A
1516442565.5,7945,6.31,72126.8,-12.41,-16.13,-15.99,0,*58
1516442566.75,7946,6.31,72122.0,-12.41,-16.23,-15.99,0,*58
1516442568.01,7947,6.31,72120.8,-12.41,-16.37,-16.17,0,*59
1516442569.27,7948,6.31,72122.8,-12.39,-16.17,-16.13,0,*5F
1516442570.53,7949,6.31,72126.0,-12.39,-16.31,-16.27,0,*5D
1516442571.79,7950,6.31,72122.8,-12.39,-16.27,-16.13,0,*55
1516442573.06,7951,6.31,72122.3,-12.41,-16.31,-16.23,0,*5F
1516442574.32,7952,6.31,72120.8,-12.41,-16.37,-16.23,0,*5A
1516442575.58,7953,6.31,72124.3,-12.39,-16.27,-16.17,0,*52
1516442576.85,7954,6.31,72130.3,-12.39,-16.09,-15.85,0,*51
1516442578.09,7955,6.31,72124.5,-12.39,-16.17,-15.99,0,*52
1516442579.34,7956,6.31,72126.5,-12.39,-16.31,-16.13,0,*54
1516442580.58,7957,6.31,72130.0,-12.39,-16.27,-15.99,0,*53
1516442581.84,7958,6.31,72130.5,-12.39,-16.17,-16.13,0,*5E
1516442583.1,7959,6.31,72130.5,-12.39,-16.31,-16.13,0,*5B
1516442584.33,7960,6.31,72128.0,-12.39,-16.17,-15.99,0,*54
1516442585.57,7961,6.31,72134.0,-12.39,-15.99,-15.85,0,*5D
1516442586.83,7962,6.31,72130.8,-12.39,-16.27,-16.17,0,*50
1516442588.09,7963,6.31,72128.3,-12.39,-16.31,-16.27,0,*55
1516442589.38,7964,6.31,72124.0,-12.35,-15.89,-15.81,0,*51
1516442590.61,7965,6.31,72128.0,-12.35,-15.95,-15.75,0,*56
1516442591.87,7966,6.31,72130.0,-12.35,-16.03,-15.89,0,*5A
1516442593.11,7967,6.31,72134.0,-12.35,-16.03,-15.75,0,*58
1516442594.41,7968,6.31,72126.3,-12.35,-16.09,-15.81,0,*56
1516442595.69,7969,6.31,72130.5,-12.35,-16.23,-16.23,0,*54
1516442596.98,7970,6.31,72124.8,-12.35,-16.13,-15.89,0,*5C
1516442598.24,7971,6.31,72126.5,-12.33,-16.27,-16.09,0,*57
1516442599.5,7972,6.31,72128.0,-12.33,-16.27,-16.23,0,*5C
1516442600.73,7973,6.31,72126.0,-12.33,-16.37,-16.23,0,*5C
1516442601.97,7974,6.31,72122.0,-12.33,-16.41,-16.27,0,*5E
1516442603.2,7975,6.31,72124.5,-12.33,-16.37,-16.27,0,*5E
1516442604.41,7976,6.31,72130.0,-12.33,-16.41,-16.37,0,*5D
1516442605.65,7977,6.31,72122.5,-12.33,-16.37,-16.23,0,*58
1516442606.88,7978,6.31,72124.8,-12.33,-16.37,-16.27,0,*53
1516442608.12,7979,6.31,72120.3,-12.31,-16.41,-16.37,0,*50
1516442609.36,7980,6.31,72130.5,-12.33,-16.41,-16.23,0,*51
1516442610.59,7981,6.31,72128.5,-12.33,-16.51,-16.37,0,*54
1516442611.83,7982,6.31,72126.5,-12.33,-16.41,-16.27,0,*57
1516442613.06,7983,6.31,72128.5,-12.33,-16.41,-16.27,0,*56
1516442614.3,7984,6.31,72128.5,-12.33,-16.37,-16.13,0,*57
1516442615.59,7985,6.31,72128.3,-12.31,-16.27,-16.09,0,*5E
1516442616.85,7986,6.31,72120.5,-12.33,-16.51,-16.23,0,*56
1516442618.06,7987,6.31,72126.8,-12.33,-16.55,-16.41,0,*57
1516442619.27,7988,6.31,72130.3,-12.33,-16.55,-16.41,0,*58
1516442620.53,7989,6.31,72128.0,-12.31,-16.51,-16.37,0,*5E
1516442621.79,7990,6.31,72128.5,-12.33,-16.51,-16.27,0,*55
1516442623.06,7991,6.31,72128.8,-12.31,-16.65,-16.41,0,*51
1516442624.3,7992,6.31,72128.8,-12.31,-16.55,-16.37,0,*50
1516442625.53,7993,6.31,72134.0,-12.33,-16.79,-16.65,0,*5A
1516442626.77,7994,6.31,72138.5,-12.33,-16.55,-16.23,0,*51
1516442627.98,7995,6.31,72132.8,-12.33,-16.41,-16.37,0,*50
1516442629.24,7996,6.31,72132.8,-12.33,-16.65,-16.51,0,*55
1516442630.52,7997,6.31,72126.3,-12.31,-16.51,-16.27,0,*50
1516442631.78,7998,6.31,72122.8,-12.33,-16.69,-16.51,0,*57
1516442633.04,7999,6.31,72116.5,-12.31,-16.65,-16.37,0,*58
1516442634.28,8000,6.25,72118.0,-12.33,-16.79,-16.51,0,*51
1516442635.54,8001,6.31,72126.8,-12.31,-16.79,-16.65,0,*55
1516442636.81,8002,6.31,72126.5,-12.31,-16.37,-16.13,0,*5D
1516442638.07,8003,6.31,72130.8,-12.31,-16.09,-15.67,0,*51
1516442639.36,8004,6.31,72126.8,-12.31,-16.23,-15.89,0,*5E
1516442640.65,8005,6.31,72130.5,-12.31,-16.23,-15.81,0,*57
1516442641.94,8006,6.31,72124.5,-12.31,-16.27,-15.89,0,*58
1516442643.21,8007,6.31,72124.8,-12.31,-16.41,-16.13,0,*59
1516442644.5,8008,6.31,72130.8,-12.31,-16.65,-16.23,0,*53
1516442645.77,8009,6.31,72130.5,-12.31,-16.55,-16.27,0,*55
1516442647.03,8010,6.31,72132.3,-12.31,-16.55,-16.27,0,*5D
1516442648.29,8011,6.31,72124.0,-12.29,-16.51,-16.23,0,*55
1516442649.55,8012,6.31,72126.8,-12.29,-16.31,-15.89,0,*53
1516442650.84,8013,6.31,72124.0,-12.27,-16.23,-15.85,0,*53
1516442652.08,8014,6.31,72130.8,-12.29,-16.09,-15.75,0,*5D
1516442653.34,8015,6.31,72130.8,-12.27,-15.99,-15.57,0,*58
1516442654.62,8016,6.31,72126.5,-12.27,-16.23,-15.89,0,*5A
1516442655.83,8017,6.31,72126.0,-12.29,-16.37,-16.03,0,*51
1516442657.07,8018,6.31,72124.8,-12.29,-16.37,-15.89,0,*5F
1516442658.36,8019,6.25,72122.8,-12.27,-16.65,-16.31,0,*57
1516442659.62,8020,6.31,72124.8,-12.27,-16.45,-16.09,0,*54
1516442660.85,8021,6.31,72124.0,-12.27,-15.99,-15.71,0,*5B
1516442662.14,8022,6.25,72130.3,-12.27,-16.23,-15.85,0,*51
1516442663.41,8023,6.31,72136.0,-12.27,-16.09,-15.75,0,*57
1516442664.64,8024,6.25,72124.8,-12.27,-16.03,-15.71,0,*5E
1516442665.87,8025,6.31,72124.0,-12.23,-16.45,-16.03,0,*5F
1516442667.17,8026,6.31,72124.8,-12.23,-16.13,-15.81,0,*56
1516442668.39,8027,6.31,72124.8,-12.23,-16.03,-15.67,0,*5E
1516442669.63,8028,6.31,72128.8,-12.23,-16.03,-15.71,0,*56
1516442670.87,8029,6.31,72136.0,-12.23,-15.71,-15.29,0,*5C
1516442672.13,8030,6.31,72136.5,-12.23,-15.81,-15.53,0,*56
1516442673.39,8031,6.25,72128.3,-12.23,-15.71,-15.43,0,*59
1516442674.63,8032,6.31,72130.8,-12.23,-15.67,-15.29,0,*51
1516442675.87,8033,6.25,72132.0,-12.19,-15.75,-15.53,0,*57
1516442677.14,8034,6.25,72132.8,-12.19,-15.75,-15.39,0,*5C
1516442678.38,8035,6.31,72130.3,-12.21,-15.89,-15.53,0,*59
1516442679.62,8036,6.25,72124.5,-12.19,-15.67,-15.49,0,*5A
1516442680.88,8037,6.31,72138.5,-12.19,-15.67,-15.21,0,*55
1516442682.12,8038,6.31,72134.8,-12.19,-15.49,-15.25,0,*52
1516442683.38,8039,6.31,72134.5,-12.19,-15.39,-15.07,0,*54
1516442684.59,8040,6.25,72134.5,-12.17,-15.49,-15.15,0,*50
1516442685.83,8041,6.25,72134.3,-12.13,-15.67,-15.43,0,*5A
1516442687.04,8042,6.31,72132.5,-12.17,-15.75,-15.49,0,*54
1516442688.28,8043,6.25,72130.8,-12.17,-15.71,-15.35,0,*5A
1516442689.51,8044,6.31,72128.8,-12.17,-15.67,-15.39,0,*56
1516442690.75,8045,6.31,72132.8,-12.13,-15.57,-15.29,0,*51
1516442691.99,8046,6.31,72130.0,-12.13,-15.67,-15.43,0,*5D
1516442693.19,8047,6.25,72122.0,-12.13,-15.99,-15.67,0,*5B
1516442694.41,8048,6.25,72126.3,-12.11,-15.99,-15.67,0,*56
1516442695.67,8049,6.25,72126.5,-12.13,-15.89,-15.57,0,*57
1516442696.9,8050,6.25,72132.8,-12.13,-15.89,-15.67,0,*5C
1516442698.14,8051,6.25,72130.3,-12.09,-15.67,-15.39,0,*5D
1516442699.37,8052,6.25,72134.8,-12.09,-15.71,-15.43,0,*54
1516442700.63,8053,6.25,72132.5,-12.11,-15.71,-15.43,0,*5C
1516442701.89,8054,6.31,72128.0,-12.11,-15.85,-15.67,0,*56
1516442703.08,8055,6.25,72128.3,-12.09,-15.99,-15.67,0,*53
1516442704.37,8056,6.25,72130.3,-12.11,-15.81,-15.57,0,*53
1516442705.6,8057,6.25,72132.0,-12.09,-16.41,-16.13,0,*57
1516442706.86,8058,6.25,72130.3,-12.11,-16.45,-16.17,0,*51
1516442708.06,8059,6.25,72130.3,-12.09,-15.99,-15.67,0,*5F
1516442709.32,8060,6.31,72130.0,-12.11,-15.85,-15.67,0,*51
1516442710.55,8061,6.25,72130.3,-12.11,-15.99,-15.71,0,*5A
1516442711.81,8062,6.25,72124.5,-12.11,-16.03,-15.85,0,*52
1516442713.05,8063,6.25,72124.3,-12.11,-15.67,-15.53,0,*59
1516442714.31,8064,6.31,72132.5,-12.11,-16.03,-15.85,0,*54
1516442715.59,8065,6.25,72128.8,-12.11,-16.17,-15.89,0,*5C
1516442716.85,8066,6.25,72134.0,-12.09,-15.81,-15.57,0,*59
1516442718.08,8067,6.25,72128.8,-12.09,-15.71,-15.43,0,*52
1516442719.31,8068,6.25,72126.8,-12.09,-15.89,-15.71,0,*5B
1516442720.6,8069,6.25,72126.3,-12.11,-15.81,-15.43,0,*5A
1516442721.86,8070,6.25,72124.5,-12.11,-15.71,-15.39,0,*50
1516442723.06,8071,6.25,72128.8,-12.09,-15.99,-15.67,0,*55
1516442724.34,8072,6.25,72130.0,-12.11,-15.81,-15.57,0,*55
1516442725.54,8073,6.25,72128.3,-12.09,-15.99,-15.71,0,*50
1516442726.8,8074,6.25,72124.8,-12.09,-15.89,-15.57,0,*52
1516442728.03,8075,6.31,72126.3,-12.07,-15.95,-15.63,0,*57
1516442729.27,8076,6.25,72120.0,-12.05,-15.81,-15.63,0,*53
1516442730.52,8077,6.25,72128.0,-12.07,-16.27,-15.99,0,*5A
1516442731.78,8078,6.31,72128.8,-12.07,-15.99,-15.85,0,*5E
1516442733.07,8079,6.25,72122.8,-12.07,-16.09,-15.85,0,*55
1516442734.36,8080,6.25,72124.0,-12.07,-15.85,-15.81,0,*50
1516442735.58,8081,6.25,72124.0,-12.05,-15.67,-15.49,0,*5B
1516442736.84,8082,6.25,72124.8,-12.07,-15.39,-15.11,0,*5C
1516442738.06,8083,6.25,72130.3,-12.05,-15.75,-15.49,0,*5A
1516442739.35,8084,6.25,72126.5,-12.01,-15.89,-15.57,0,*55
1516442740.61,8085,6.25,72122.8,-12.07,-15.99,-15.85,0,*5C
1516442741.9,8086,6.25,72122.3,-12.07,-16.09,-15.85,0,*55
1516442743.13,8087,6.25,72124.0,-12.07,-15.95,-15.67,0,*5E
1516442744.37,8088,6.25,72130.5,-12.05,-15.81,-15.53,0,*51
1516442745.6,8089,6.25,72122.0,-12.05,-15.49,-15.35,0,*54
1516442746.84,8090,6.25,72126.8,-12.05,-15.49,-15.21,0,*59
1516442748.1,8091,6.25,72126.8,-12.01,-15.43,-15.15,0,*51
1516442749.35,8092,6.25,72126.3,-12.01,-15.71,-15.49,0,*5A
1516442750.58,8093,6.25,72124.5,-11.99,-16.23,-15.95,0,*5C
1516442751.84,8094,6.25,72124.3,-11.99,-15.81,-15.57,0,*5E
1516442753.11,8095,6.25,72124.8,-12.01,-15.57,-15.29,0,*5F
1516442754.4,8096,6.25,72126.3,-12.01,-15.57,-15.43,0,*50
1516442755.69,8097,6.25,72128.8,-12.01,-15.81,-15.57,0,*5F
1516442756.93,8098,6.25,72126.5,-11.99,-15.63,-15.43,0,*5B
1516442758.17,8099,6.25,72124.3,-11.99,-15.49,-15.35,0,*53
1516442759.37,8100,6.25,72124.0,-11.99,-15.99,-15.75,0,*5B
1516442760.61,8101,6.25,72122.5,-11.99,-16.17,-15.99,0,*5D
1516442761.88,8102,6.25,72126.3,-11.99,-16.17,-16.09,0,*54
1516442763.11,8103,6.25,72126.5,-11.99,-16.37,-16.23,0,*5F
1516442764.36,8104,6.25,72128.0,-11.99,-16.09,-15.95,0,*5B
1516442765.61,8105,6.25,72132.5,-11.99,-16.31,-16.31,0,*5C
1516442766.85,8106,6.25,72130.5,-11.99,-16.59,-16.51,0,*57
1516442768.11,8107,6.25,72130.3,-12.01,-16.51,-16.45,0,*59
1516442769.4,8108,6.31,72130.3,-12.01,-16.23,-16.09,0,*5B
1516442770.63,8109,6.25,72122.5,-11.99,-16.23,-16.03,0,*52
1516442771.89,8110,6.25,72124.3,-11.99,-16.69,-16.51,0,*53
1516442773.15,8111,6.25,72130.5,-12.01,-16.51,-16.37,0,*5B
1516442774.39,8112,6.25,72128.5,-12.01,-16.79,-16.59,0,*5A
1516442775.66,8113,6.25,72128.8,-12.01,-16.37,-16.31,0,*5F
1516442776.95,8114,6.25,72130.8,-12.01,-16.23,-16.09,0,*56
1516442778.17,8115,6.25,72130.0,-12.05,-15.75,-15.53,0,*5F
1516442779.43,8116,6.25,72130.8,-12.01,-16.03,-15.81,0,*55
1516442780.72,8117,6.25,72132.3,-12.01,-16.17,-15.89,0,*59
1516442781.99,8118,6.25,72134.3,-12.01,-15.75,-15.57,0,*52
1516442783.28,8119,6.25,72134.3,-12.01,-15.57,-15.35,0,*57
1516442784.54,8120,6.25,72132.8,-11.99,-15.57,-15.43,0,*5E
1516442785.77,8121,6.25,72132.3,-11.99,-15.49,-15.21,0,*54
1516442787.06,8122,6.25,72134.5,-12.01,-15.57,-15.43,0,*5E
1516442788.3,8123,6.25,72130.8,-11.99,-15.75,-15.57,0,*58
1516442789.51,8124,6.25,72128.3,-11.99,-16.03,-15.99,0,*5F
1516442790.77,8125,6.25,72134.8,-11.99,-16.31,-16.17,0,*5A
1516442792.01,8126,6.25,72134.0,-11.99,-16.37,-16.31,0,*5B
1516442793.25,8127,6.25,72132.3,-11.99,-16.03,-15.81,0,*55
1516442794.49,8128,6.25,72136.3,-11.99,-15.81,-15.75,0,*58
1516442795.76,8129,6.25,72132.3,-11.97,-15.53,-15.39,0,*50
1516442796.99,8130,6.25,72136.3,-11.97,-15.29,-15.11,0,*5F
1516442798.21,8131,6.25,72138.5,-11.99,-15.25,-15.11,0,*5C
1516442799.47,8132,6.25,72132.0,-11.97,-15.39,-15.11,0,*5C
1516442800.71,8133,6.25,72138.0,-11.97,-15.25,-15.11,0,*50
1516442801.96,8134,6.25,72138.5,-11.95,-15.53,-15.39,0,*5E
1516442803.17,8135,6.25,72136.8,-11.95,-15.71,-15.67,0,*54
1516442804.38,8136,6.25,72136.0,-11.91,-15.71,-15.53,0,*54
1516442805.62,8137,6.25,72132.3,-11.89,-15.67,-15.63,0,*58
1516442806.89,8138,6.25,72136.8,-11.89,-15.57,-15.49,0,*5C
1516442808.11,8139,6.25,72134.5,-11.91,-15.71,-15.53,0,*5B
1516442809.34,8140,6.25,72132.5,-11.91,-15.99,-15.85,0,*58
1516442810.58,8141,6.25,72136.0,-11.91,-16.09,-15.99,0,*5E
1516442811.85,8142,6.25,72134.5,-11.91,-16.13,-16.09,0,*5C
1516442813.07,8143,6.25,72132.5,-11.91,-15.71,-15.53,0,*56
1516442814.34,8144,6.25,72134.5,-11.91,-15.85,-15.81,0,*55
1516442815.63,8145,6.25,72132.8,-11.89,-16.23,-16.17,0,*5E
1516442816.86,8146,6.25,72134.3,-11.89,-15.67,-15.67,0,*5A
1516442818.13,8147,6.25,72134.5,-11.89,-16.03,-15.81,0,*52
1516442819.37,8148,6.25,72128.8,-11.89,-16.03,-16.03,0,*54
1516442820.62,8149,6.25,72130.8,-11.89,-15.81,-15.67,0,*5D
1516442821.88,8150,6.25,72128.0,-11.89,-15.49,-15.35,0,*56
1516442823.15,8151,6.25,72132.5,-11.89,-15.35,-15.29,0,*51
1516442824.42,8152,6.25,72132.0,-11.89,-15.35,-15.29,0,*52
1516442825.67,8153,6.25,72128.5,-11.87,-15.57,-15.49,0,*5F
1516442826.89,8154,6.25,72130.8,-11.87,-15.67,-15.49,0,*5B
1516442828.13,8155,6.25,72128.8,-11.87,-15.49,-15.35,0,*5D
1516442829.36,8156,6.25,72134.0,-11.87,-15.63,-15.49,0,*5D
1516442830.6,8157,6.25,72134.8,-11.87,-15.63,-15.43,0,*56
1516442831.87,8158,6.25,72132.3,-11.85,-15.43,-15.29,0,*55
1516442833.16,8159,6.25,72130.5,-11.85,-15.57,-15.39,0,*50
1516442834.4,8160,6.25,72134.3,-11.85,-16.03,-15.99,0,*52
1516442835.66,8161,6.25,72130.3,-11.85,-15.99,-15.89,0,*52
1516442836.87,8162,6.25,72130.5,-11.83,-16.03,-15.99,0,*56
1516442838.11,8163,6.25,72128.8,-11.83,-16.03,-16.13,0,*56
1516442839.37,8164,6.25,72132.8,-11.83,-15.89,-15.85,0,*5C
1516442840.62,8165,6.25,72128.0,-11.85,-15.75,-15.71,0,*53
1516442841.84,8166,6.25,72130.5,-11.83,-15.53,-15.29,0,*5F
1516442843.09,8167,6.25,72132.5,-11.83,-15.39,-15.29,0,*52
1516442844.35,8168,6.25,72130.0,-11.83,-15.57,-15.43,0,*59
1516442845.63,8169,6.25,72130.8,-11.81,-15.53,-15.39,0,*53
1516442846.91,8170,6.25,72132.0,-11.81,-15.57,-15.57,0,*57
1516442848.15,8171,6.25,72124.5,-11.79,-15.53,-15.35,0,*51
1516442849.4,8172,6.25,72124.3,-11.79,-15.39,-15.25,0,*5F
1516442850.64,8173,6.25,72130.0,-11.79,-15.67,-15.57,0,*50
1516442851.91,8174,6.25,72130.0,-11.79,-15.85,-15.81,0,*50
1516442853.15,8175,6.25,72124.8,-11.79,-15.67,-15.57,0,*56
1516442854.42,8176,6.25,72124.0,-11.79,-16.09,-16.09,0,*56
1516442855.64,8177,6.25,72128.5,-11.79,-16.41,-16.41,0,*57
1516442856.89,8178,6.25,72124.8,-11.75,-16.31,-16.31,0,*54
1516442858.11,8179,6.25,72122.5,-11.79,-16.45,-16.41,0,*5D
1516442859.34,8180,6.25,72120.8,-11.79,-16.27,-16.37,0,*5E
1516442860.6,8181,6.25,72130.0,-11.79,-16.27,-16.23,0,*5A
1516442861.87,8182,6.25,72128.8,-11.79,-16.27,-16.27,0,*5D
1516442863.11,8183,6.25,72124.3,-11.81,-16.41,-16.41,0,*5B
1516442864.41,8184,6.25,72120.8,-11.81,-16.13,-16.23,0,*5F
1516442865.64,8185,6.25,72122.3,-11.81,-15.99,-15.95,0,*51
1516442866.9,8186,6.25,72124.5,-11.79,-16.23,-16.13,0,*5A
1516442868.15,8187,6.25,72126.5,-11.81,-15.95,-15.71,0,*55
1516442869.41,8188,6.25,72122.8,-11.81,-16.41,-16.27,0,*50
1516442870.62,8189,6.25,72122.3,-11.79,-15.99,-15.95,0,*5A
1516442871.9,8190,6.25,72124.5,-11.79,-16.09,-16.09,0,*5E
1516442873.2,8191,6.25,72120.3,-11.81,-16.13,-16.09,0,*53
1516442874.44,8192,6.25,72128.8,-11.79,-16.09,-15.95,0,*5A
1516442875.69,8193,6.25,72126.0,-11.81,-15.67,-15.53,0,*5D
1516442876.92,8194,6.25,72120.5,-11.81,-15.67,-15.67,0,*5D
1516442878.18,8195,6.25,72124.0,-11.75,-15.43,-15.35,0,*56
1516442879.45,8196,6.25,72126.3,-11.79,-15.39,-15.35,0,*54
1516442880.68,8197,6.25,72126.0,-11.79,-15.99,-15.85,0,*54
1516442881.89,8198,6.25,72124.8,-11.79,-15.95,-15.99,0,*5A
1516442883.15,8199,6.25,72126.0,-11.79,-16.27,-16.23,0,*53
1516442884.39,8200,6.25,72122.8,-11.75,-16.17,-16.03,0,*5D
1516442885.6,8201,6.25,72128.3,-11.75,-15.49,-15.53,0,*52
1516442886.81,8202,6.25,72130.0,-11.75,-16.03,-16.03,0,*5A
1516442888.09,8203,6.25,72132.0,-11.73,-16.23,-16.23,0,*5D
1516442889.32,8204,6.25,72126.5,-11.73,-15.67,-15.67,0,*5A
1516442890.53,8205,6.25,72124.0,-11.75,-15.75,-15.67,0,*5E
1516442891.78,8206,6.25,72124.3,-11.75,-15.43,-15.29,0,*52
1516442893.01,8207,6.25,72122.8,-11.75,-15.49,-15.35,0,*54
1516442894.27,8208,6.25,72124.0,-11.73,-16.55,-16.51,0,*52
1516442895.55,8209,6.25,72124.8,-11.73,-16.23,-16.31,0,*54
1516442896.76,8210,6.25,72124.3,-11.75,-16.03,-16.03,0,*59
1516442897.97,8211,6.25,72126.5,-11.75,-15.67,-15.63,0,*5C
1516442899.18,8212,6.25,72132.5,-11.75,-15.75,-15.67,0,*58
1516442900.42,8213,6.25,72130.8,-11.71,-15.71,-15.63,0,*5D
1516442901.71,8214,6.25,72126.0,-11.73,-16.17,-16.17,0,*5B
1516442902.95,8215,6.25,72124.3,-11.73,-16.55,-16.41,0,*5F
1516442904.18,8216,6.25,72124.5,-11.73,-16.37,-16.37,0,*59
1516442905.45,8217,6.25,72124.3,-11.75,-16.17,-16.09,0,*51
1516442906.69,8218,6.25,72124.0,-11.75,-16.09,-16.03,0,*5B
1516442907.92,8219,6.25,72126.5,-11.73,-15.63,-15.53,0,*55
1516442909.16,8220,6.25,72124.3,-11.73,-15.63,-15.63,0,*5C